Terminal Aerodrome Forecast
Issued by NWS Grand Forks, ND

Home | Current Version | Previous Version | Text Only | Print | Product List | Glossary On
Versions: 1 2 3 4 5 6 7 8 9 10 11 12 13 14 15
737
FTUS43 KFGF 250520
TAFGFK
TAF
KGFK 250520Z 2506/2606 09007KT P6SM FEW060
     FM251500 12008KT P6SM VCSH OVC100
     FM251800 12012G18KT P6SM -TSRA BKN050CB
     FM252100 11011G18KT P6SM VCTS OVC050CB
     FM260200 08007KT P6SM VCSH BKN025=

USA.gov is the U.S. government's official web portal to all federal, state and local government web resources and services.